Tracking 32136 objects as of 11-Nov-2025
HD Live streaming from Space Station
objects crossing your sky now

STARLINK-32281

Track STARLINK-32281 now!
10-day predictions
STARLINK-32281 is classified as:


NORAD ID: 60375
Int'l Code: 2024-138W
Perigee: 481.7 km
Apogee: 483.1 km
Inclination: 53.2 °
Period: 94.1 minutes
Semi major axis: 6853 km
RCS: Unknown
Launch date: August 4, 2024
Source: United States (US)
Launch site: AIR FORCE WESTERN TEST RANGE (AFWTR)
Your satellite tracking list
Your tracking list is empty




NASA's NSSDC Master Catalog

Two Line Element Set (TLE):
1 60375U 24138W   25314.90335970 -.00001773  00000-0 -47794-4 0  9995
2 60375  53.1603 141.1592 0001085 119.5509 240.5600 15.30184150 72349
Source of the keplerian elements: AFSPC